Location: Newark
(52.8300°N, 8.0000°E)
Time: 01:52:03
(UTC+00:00)

STARLINK-1074 - Pass Details

Date: 30 January 2020
Orbit: 348 x 350 km, 53.0° (Epoch: 22 February)

Event Time Altitude Azimuth Distance (km) Brightness Sun altitude
Rises 16:39:00 0° 281° (W) 2,159 7.7 -5.0°
Reaches altitude 10° 16:41:01 10° 279° (W) 1,315 6.6 -5.3°
Maximum altitude 16:43:56 69° 195° (SSW) 379 3.0 -5.7°
Drops below altitude 10° 16:46:50 10° 112° (ESE) 1,312 5.1 -6.1°
Enters shadow 16:48:16 - 110° (ESE) 1,913 5.9 -6.3°
Exits shadow 17:22:08 -72° 108° (ESE) 12,480 10.4 -11.2°
